Location: Bois de la Silve
(44.4667°N, 6.7833°E)
Time: 21:03:04
(UTC+00:00)

SL-16 R/B - Pass Details

Date: 14 July 2020
Orbit: 985 x 1007 km, 99.5° (Epoch: 14 August)

Event Time Altitude Azimuth Distance (km) Brightness Sun altitude
Exits shadow 01:57:01 25° 208° (SSW) 1,885 3.4 -16.8°
Maximum altitude 02:00:06 42° 262° (W) 1,400 3.0 -16.4°
Drops below altitude 10° 02:06:01 10° 332° (NNW) 2,790 5.2 -15.8°
Sets 02:08:41 0° 339° (NNW) 3,746 6.0 -15.6°
